| time (UTC) | temp F | wind direction | speed MPH | gust MPH | rain 1hr in | rain 24hr in | rain mn in | humidity % | barometer mb |
| 20260906111355 | 71 | 57 | 1.0 | 4.0 | 0.00 | 0.00 | 0.00 | 97 | 1049.0 |
| 20260906110850 | 71 | 107 | 0.0 | 2.0 | 0.00 | 0.00 | 0.00 | 97 | 1049.0 |
| 20260906110346 | 70 | 103 | 0.0 | 3.0 | 0.00 | 0.00 | 0.00 | 97 | 1049.0 |
| 20260906105844 | 70 | 5 | 3.0 | 3.0 | 0.00 | 0.00 | 0.00 | 97 | 1049.0 |
| 20260906105340 | 70 | 65 | 1.0 | 2.0 | 0.00 | 0.00 | 0.00 | 97 | 1049.1 |
| 20260906104836 | 70 | 109 | 0.0 | 0.0 | 0.00 | 0.00 | 0.00 | 97 | 1048.9 |
| 20260906104334 | 70 | 108 | 0.0 | 0.0 | 0.00 | 0.00 | 0.00 | 97 | 1048.9 |
| 20260906103833 | 70 | 109 | 0.0 | 0.0 | 0.00 | 0.00 | 0.00 | 97 | 1049.0 |
| 20260906103331 | 69 | 30 | 2.0 | 2.0 | 0.00 | 0.00 | 0.00 | 97 | 1048.9 |
| 20260906102828 | 70 | 107 | 0.0 | 1.0 | 0.00 | 0.00 | 0.00 | 97 | 1049.1 |
| 20260906102326 | 69 | 114 | 0.0 | 0.0 | 0.00 | 0.00 | 0.00 | 97 | 1048.8 |
| 20260906101822 | 69 | 112 | 0.0 | 1.0 | 0.00 | 0.00 | 0.00 | 97 | 1048.7 |
| 20260906101317 | 69 | 82 | 1.0 | 2.0 | 0.00 | 0.00 | 0.00 | 97 | 1048.7 |
| 20260906100813 | 69 | 113 | 0.0 | 0.0 | 0.00 | 0.00 | 0.00 | 97 | 1048.7 |
| 20260906100311 | 69 | 113 | 0.0 | 0.0 | 0.00 | 0.00 | 0.00 | 97 | 1048.7 |
| 20260906095807 | 69 | 111 | 0.0 | 0.0 | 0.00 | 0.00 | 0.00 | 97 | 1048.6 |
| 20260906095305 | 70 | 108 | 0.0 | 1.0 | 0.00 | 0.00 | 0.00 | 97 | 1048.6 |
| 20260906094801 | 70 | 101 | 0.0 | 1.0 | 0.00 | 0.00 | 0.00 | 97 | 1048.3 |
| 20260906094256 | 69 | 102 | 0.0 | 0.0 | 0.00 | 0.00 | 0.00 | 96 | 1048.4 |
| 20260906093753 | 69 | 115 | 0.0 | 0.0 | 0.00 | 0.00 | 0.00 | 96 | 1048.7 |
| 20260906093248 | 70 | 118 | 0.0 | 0.0 | 0.00 | 0.00 | 0.00 | 96 | 1048.2 |
| 20260906092743 | 70 | 116 | 0.0 | 1.0 | 0.00 | 0.00 | 0.00 | 96 | 1048.5 |
| 20260906092238 | 70 | 116 | 0.0 | 0.0 | 0.00 | 0.00 | 0.00 | 96 | 1048.5 |
| 20260906091734 | 70 | 110 | 0.0 | 0.0 | 0.00 | 0.00 | 0.00 | 96 | 1048.4 |
| 20260906091230 | 70 | 111 | 0.0 | 1.0 | 0.00 | 0.00 | 0.00 | 96 | 1048.5 |
| 20260906090726 | 70 | 110 | 0.0 | 1.0 | 0.00 | 0.00 | 0.00 | 96 | 1048.4 |
| 20260906090225 | 70 | 111 | 0.0 | 1.0 | 0.00 | 0.00 | 0.00 | 96 | 1048.3 |
| 20260906085724 | 70 | 112 | 0.0 | 1.0 | 0.00 | 0.00 | 0.00 | 96 | 1048.4 |
| 20260906085223 | 70 | 112 | 1.0 | 1.0 | 0.00 | 0.00 | 0.00 | 96 | 1048.2 |
| 20260906084719 | 70 | 94 | 0.0 | 0.0 | 0.00 | 0.00 | 0.00 | 96 | 1048.3 |
| 20260906084218 | 70 | 103 | 0.0 | 0.0 | 0.00 | 0.00 | 0.00 | 96 | 1048.3 |
| 20260906083714 | 70 | 111 | 0.0 | 0.0 | 0.00 | 0.00 | 0.00 | 96 | 1048.3 |
| 20260906083209 | 69 | 82 | 1.0 | 1.0 | 0.00 | 0.00 | 0.00 | 96 | 1048.4 |
| 20260906082704 | 69 | 113 | 0.0 | 0.0 | 0.00 | 0.00 | 0.00 | 96 | 1048.3 |
| 20260906082159 | 69 | 118 | 0.0 | 0.0 | 0.00 | 0.00 | 0.00 | 96 | 1048.3 |
| 20260906081655 | 69 | 118 | 0.0 | 0.0 | 0.00 | 0.00 | 0.00 | 96 | 1048.3 |
| 20260906081150 | 69 | 108 | 0.0 | 1.0 | 0.00 | 0.00 | 0.00 | 96 | 1048.3 |
| 20260906080646 | 69 | 108 | 0.0 | 0.0 | 0.00 | 0.00 | 0.00 | 96 | 1048.5 |
| 20260906080142 | 69 | 106 | 0.0 | 0.0 | 0.00 | 0.00 | 0.00 | 96 | 1048.3 |
| 20260906075642 | 69 | 114 | 0.0 | 0.0 | 0.00 | 0.00 | 0.00 | 96 | 1048.2 |
| 20260906075136 | 69 | 110 | 0.0 | 0.0 | 0.00 | 0.00 | 0.00 | 95 | 1048.2 |
| 20260906074632 | 69 | 118 | 0.0 | 0.0 | 0.00 | 0.00 | 0.00 | 95 | 1048.4 |
| 20260906074130 | 69 | 111 | 0.0 | 0.0 | 0.00 | 0.00 | 0.00 | 95 | 1048.3 |
| 20260906073626 | 70 | 117 | 0.0 | 0.0 | 0.00 | 0.00 | 0.00 | 95 | 1048.2 |
| 20260906073121 | 70 | 96 | 1.0 | 1.0 | 0.00 | 0.00 | 0.00 | 95 | 1048.1 |
| 20260906072616 | 70 | 111 | 0.0 | 0.0 | 0.00 | 0.00 | 0.00 | 95 | 1048.2 |
| 20260906072113 | 70 | 107 | 0.0 | 0.0 | 0.00 | 0.00 | 0.00 | 95 | 1048.4 |
| 20260906071609 | 70 | 97 | 1.0 | 1.0 | 0.00 | 0.00 | 0.00 | 94 | 1048.2 |
| 20260906071109 | 71 | 96 | 1.0 | 1.0 | 0.00 | 0.00 | 0.00 | 94 | 1048.4 |
| 20260906070606 | 71 | 99 | 1.0 | 1.0 | 0.00 | 0.00 | 0.00 | 94 | 1048.4 |
| 20260906070101 | 71 | 108 | 0.0 | 0.0 | 0.00 | 0.00 | 0.00 | 93 | 1048.6 |
| 20260906065600 | 71 | 110 | 0.0 | 0.0 | 0.00 | 0.00 | 0.00 | 94 | 1048.8 |
| 20260906065056 | 71 | 85 | 1.0 | 1.0 | 0.00 | 0.00 | 0.00 | 94 | 1048.8 |
| 20260906064551 | 71 | 51 | 3.0 | 3.0 | 0.00 | 0.00 | 0.00 | 94 | 1048.7 |
| 20260906064046 | 71 | 63 | 1.0 | 1.0 | 0.00 | 0.00 | 0.00 | 94 | 1048.5 |
| 20260906063541 | 71 | 51 | 2.0 | 2.0 | 0.00 | 0.00 | 0.00 | 94 | 1048.5 |
| 20260906063038 | 71 | 109 | 0.0 | 0.0 | 0.00 | 0.00 | 0.00 | 94 | 1048.6 |
| 20260906062532 | 71 | 136 | 0.0 | 1.0 | 0.00 | 0.00 | 0.00 | 93 | 1048.5 |
| 20260906062026 | 71 | 111 | 0.0 | 0.0 | 0.00 | 0.00 | 0.00 | 92 | 1048.5 |
| 20260906061523 | 72 | 111 | 1.0 | 1.0 | 0.00 | 0.00 | 0.00 | 92 | 1048.9 |
| 20260906061022 | 72 | 107 | 0.0 | 0.0 | 0.00 | 0.00 | 0.00 | 92 | 1048.6 |
| 20260906060519 | 72 | 91 | 1.0 | 1.0 | 0.00 | 0.00 | 0.00 | 93 | 1048.8 |
| 20260906060015 | 72 | 110 | 0.0 | 0.0 | 0.00 | 0.00 | 0.00 | 92 | 1048.8 |
| 20260906055511 | 73 | 137 | 0.0 | 1.0 | 0.00 | 0.00 | 0.00 | 91 | 1049.1 |
| 20260906055007 | 73 | 143 | 1.0 | 1.0 | 0.00 | 0.00 | 0.00 | 90 | 1048.9 |
| 20260906054507 | 73 | 107 | 0.0 | 1.0 | 0.00 | 0.00 | 0.00 | 90 | 1049.2 |
| 20260906054002 | 73 | 104 | 0.0 | 1.0 | 0.00 | 0.00 | 0.00 | 90 | 1048.9 |
| 20260906053458 | 73 | 104 | 0.0 | 1.0 | 0.00 | 0.00 | 0.00 | 91 | 1048.9 |
| 20260906052954 | 73 | 108 | 0.0 | 1.0 | 0.00 | 0.00 | 0.00 | 91 | 1049.0 |
| 20260906052450 | 73 | 117 | 0.0 | 0.0 | 0.00 | 0.00 | 0.00 | 91 | 1049.1 |
| 20260906051946 | 73 | 113 | 0.0 | 0.0 | 0.00 | 0.00 | 0.00 | 92 | 1048.9 |
| 20260906051442 | 72 | 113 | 0.0 | 0.0 | 0.00 | 0.00 | 0.00 | 93 | 1048.8 |
| 20260906050937 | 72 | 112 | 0.0 | 1.0 | 0.00 | 0.00 | 0.00 | 93 | 1048.8 |
| 20260906050437 | 72 | 124 | 0.0 | 1.0 | 0.00 | 0.00 | 0.00 | 93 | 1048.9 |
| 20260906045936 | 72 | 121 | 0.0 | 1.0 | 0.00 | 0.00 | 0.00 | 93 | 1048.9 |
| 20260906045435 | 71 | 144 | 0.0 | 1.0 | 0.00 | 0.00 | 0.00 | 93 | 1049.0 |
| 20260906044932 | 72 | 117 | 0.0 | 0.0 | 0.00 | 0.00 | 0.00 | 93 | 1048.7 |
| 20260906044432 | 72 | 117 | 0.0 | 0.0 | 0.00 | 0.00 | 0.00 | 92 | 1048.9 |
| 20260906043927 | 72 | 112 | 0.0 | 0.0 | 0.00 | 0.00 | 0.00 | 92 | 1048.8 |
| 20260906043423 | 72 | 112 | 0.0 | 0.0 | 0.00 | 0.00 | 0.00 | 91 | 1049.0 |
| 20260906042918 | 72 | 112 | 0.0 | 0.0 | 0.00 | 0.00 | 0.00 | 91 | 1048.9 |
| 20260906042417 | 72 | 109 | 0.0 | 0.0 | 0.00 | 0.00 | 0.00 | 90 | 1048.8 |
| 20260906041913 | 72 | 111 | 0.0 | 0.0 | 0.00 | 0.00 | 0.00 | 90 | 1048.8 |
| 20260906041409 | 72 | 103 | 1.0 | 1.0 | 0.00 | 0.00 | 0.00 | 91 | 1048.6 |
| 20260906040908 | 73 | 109 | 0.0 | 1.0 | 0.00 | 0.00 | 0.00 | 89 | 1048.8 |
| 20260906040403 | 72 | 95 | 1.0 | 1.0 | 0.00 | 0.00 | 0.00 | 91 | 1048.7 |
| 20260906035859 | 72 | 114 | 0.0 | 0.0 | 0.00 | 0.27 | 0.27 | 91 | 1049.0 |
| 20260906035355 | 73 | 120 | 0.0 | 0.0 | 0.00 | 0.27 | 0.27 | 90 | 1048.5 |
| 20260906034850 | 73 | 111 | 0.0 | 0.0 | 0.00 | 0.27 | 0.27 | 90 | 1048.4 |
| 20260906034350 | 73 | 117 | 0.0 | 0.0 | 0.00 | 0.27 | 0.27 | 89 | 1048.4 |
| 20260906033846 | 73 | 112 | 0.0 | 0.0 | 0.00 | 0.27 | 0.27 | 88 | 1048.3 |
| 20260906033345 | 74 | 117 | 0.0 | 0.0 | 0.00 | 0.27 | 0.27 | 87 | 1048.2 |
| 20260906032841 | 74 | 106 | 0.0 | 0.0 | 0.00 | 0.27 | 0.27 | 86 | 1048.5 |
| 20260906032337 | 74 | 112 | 0.0 | 0.0 | 0.00 | 0.27 | 0.27 | 86 | 1048.5 |
| 20260906031832 | 74 | 118 | 0.0 | 0.0 | 0.00 | 0.27 | 0.27 | 85 | 1048.5 |
| 20260906031327 | 75 | 107 | 0.0 | 0.0 | 0.00 | 0.27 | 0.27 | 85 | 1048.2 |
| 20260906030827 | 75 | 31 | 1.0 | 1.0 | 0.00 | 0.27 | 0.27 | 85 | 1048.3 |
| 20260906030323 | 75 | 109 | 0.0 | 1.0 | 0.00 | 0.27 | 0.27 | 85 | 1048.5 |
| 20260906025823 | 75 | 90 | 1.0 | 1.0 | 0.00 | 0.27 | 0.27 | 85 | 1048.5 |
| 20260906025317 | 75 | 72 | 2.0 | 4.0 | 0.00 | 0.27 | 0.27 | 85 | 1048.7 |
| 20260906024816 | 75 | 96 | 2.0 | 3.0 | 0.00 | 0.27 | 0.27 | 85 | 1048.4 |
| 20260906024315 | 74 | 329 | 5.0 | 10.0 | 0.00 | 0.27 | 0.27 | 88 | 1048.6 |
| 20260906023811 | 74 | 110 | 0.0 | 0.0 | 0.00 | 0.27 | 0.27 | 89 | 1048.4 |
| 20260906023306 | 74 | 96 | 0.0 | 0.0 | 0.00 | 0.27 | 0.27 | 88 | 1048.1 |
| 20260906022801 | 74 | 112 | 0.0 | 0.0 | 0.00 | 0.27 | 0.27 | 89 | 1048.1 |
| 20260906022257 | 74 | 112 | 0.0 | 0.0 | 0.00 | 0.27 | 0.27 | 89 | 1048.0 |
| 20260906021753 | 75 | 109 | 0.0 | 0.0 | 0.00 | 0.27 | 0.27 | 88 | 1048.2 |
| 20260906021251 | 75 | 107 | 0.0 | 0.0 | 0.00 | 0.27 | 0.27 | 88 | 1048.0 |
| 20260906020746 | 75 | 114 | 0.0 | 0.0 | 0.00 | 0.27 | 0.27 | 87 | 1048.0 |
| 20260906020246 | 75 | 107 | 0.0 | 0.0 | 0.00 | 0.27 | 0.27 | 88 | 1047.9 |
| 20260906015741 | 76 | 77 | 0.0 | 0.0 | 0.00 | 0.27 | 0.27 | 88 | 1048.1 |
| 20260906015240 | 76 | 64 | 0.0 | 0.0 | 0.00 | 0.27 | 0.27 | 85 | 1047.9 |
| 20260906014740 | 76 | 106 | 0.0 | 0.0 | 0.00 | 0.27 | 0.27 | 84 | 1047.8 |
| 20260906014235 | 76 | 107 | 0.0 | 0.0 | 0.00 | 0.27 | 0.27 | 86 | 1047.9 |
| 20260906013731 | 76 | 103 | 0.0 | 0.0 | 0.00 | 0.27 | 0.27 | 87 | 1047.9 |
| 20260906013231 | 76 | 115 | 0.0 | 0.0 | 0.00 | 0.27 | 0.27 | 90 | 1047.9 |
| 20260906012726 | 76 | 115 | 0.0 | 0.0 | 0.00 | 0.27 | 0.27 | 91 | 1047.7 |
| 20260906012221 | 76 | 119 | 0.0 | 0.0 | 0.00 | 0.27 | 0.27 | 90 | 1047.8 |
| 20260906011717 | 76 | 113 | 0.0 | 0.0 | 0.00 | 0.27 | 0.27 | 90 | 1047.5 |
| 20260906011211 | 77 | 112 | 0.0 | 0.0 | 0.00 | 0.27 | 0.27 | 89 | 1047.4 |
| 20260906010707 | 77 | 115 | 0.0 | 0.0 | 0.00 | 0.27 | 0.27 | 88 | 1047.5 |
| 20260906010203 | 78 | 127 | 0.0 | 0.0 | 0.00 | 0.27 | 0.27 | 88 | 1047.5 |
| 20260906005702 | 78 | 112 | 0.0 | 0.0 | 0.00 | 0.27 | 0.27 | 87 | 1047.3 |
| 20260906005202 | 78 | 97 | 0.0 | 0.0 | 0.00 | 0.27 | 0.27 | 86 | 1047.1 |
| 20260906004701 | 79 | 115 | 0.0 | 0.0 | 0.00 | 0.27 | 0.27 | 86 | 1047.4 |
| 20260906004156 | 79 | 110 | 0.0 | 0.0 | 0.00 | 0.27 | 0.27 | 86 | 1047.1 |
| 20260906003652 | 79 | 105 | 0.0 | 0.0 | 0.00 | 0.27 | 0.27 | 85 | 1047.1 |
| 20260906003148 | 80 | 112 | 0.0 | 0.0 | 0.00 | 0.27 | 0.27 | 85 | 1047.4 |
| 20260906002647 | 80 | 108 | 0.0 | 0.0 | 0.00 | 0.27 | 0.27 | 84 | 1046.9 |
| 20260906002142 | 80 | 96 | 0.0 | 0.0 | 0.00 | 0.27 | 0.27 | 84 | 1046.8 |
| 20260906001637 | 81 | 113 | 0.0 | 0.0 | 0.00 | 0.27 | 0.27 | 83 | 1047.3 |
| 20260906001137 | 81 | 111 | 0.0 | 0.0 | 0.00 | 0.27 | 0.27 | 82 | 1047.7 |
| 20260906000633 | 82 | 111 | 0.0 | 0.0 | 0.00 | 0.27 | 0.27 | 80 | 1047.4 |
| 20260906000128 | 82 | 109 | 0.0 | 0.0 | 0.00 | 0.27 | 0.27 | 79 | 1047.6 |
| 20260905235627 | 83 | 115 | 0.0 | 0.0 | 0.00 | 0.27 | 0.27 | 78 | 1047.7 |
| 20260905235123 | 83 | 112 | 0.0 | 0.0 | 0.00 | 0.27 | 0.27 | 78 | 1047.8 |
| 20260905234618 | 84 | 113 | 0.0 | 0.0 | 0.00 | 0.27 | 0.27 | 77 | 1047.8 |
| 20260905234114 | 85 | 109 | 0.0 | 0.0 | 0.00 | 0.27 | 0.27 | 74 | 1047.7 |
| 20260905233613 | 86 | 116 | 0.0 | 0.0 | 0.00 | 0.27 | 0.27 | 73 | 1047.7 |
| 20260905233108 | 87 | 135 | 0.0 | 0.0 | 0.00 | 0.27 | 0.27 | 72 | 1047.7 |
| 20260905232603 | 87 | 111 | 0.0 | 0.0 | 0.00 | 0.27 | 0.27 | 65 | 1047.7 |
| 20260905232059 | 88 | 114 | 0.0 | 0.0 | 0.00 | 0.27 | 0.27 | 67 | 1048.0 |
| 20260905231554 | 89 | 115 | 0.0 | 0.0 | 0.00 | 0.27 | 0.27 | 68 | 1048.0 |
| 20260905231050 | 89 | 115 | 0.0 | 0.0 | 0.00 | 0.27 | 0.27 | 67 | 1047.9 |
| 20260905230550 | 89 | 107 | 0.0 | 0.0 | 0.00 | 0.27 | 0.27 | 64 | 1047.6 |
| 20260905230048 | 90 | 109 | 0.0 | 0.0 | 0.00 | 0.27 | 0.27 | 58 | 1047.8 |
| 20260905225543 | 91 | 110 | 0.0 | 0.0 | 0.00 | 0.27 | 0.27 | 59 | 1047.9 |
| 20260905225038 | 92 | 114 | 0.0 | 0.0 | 0.00 | 0.27 | 0.27 | 59 | 1047.8 |
| 20260905224538 | 92 | 115 | 0.0 | 0.0 | 0.00 | 0.27 | 0.27 | 60 | 1047.7 |
| 20260905224037 | 92 | 115 | 0.0 | 0.0 | 0.00 | 0.27 | 0.27 | 60 | 1047.7 |
| 20260905223535 | 91 | 116 | 0.0 | 0.0 | 0.00 | 0.27 | 0.27 | 56 | 1047.8 |
| 20260905223031 | 91 | 112 | 0.0 | 1.0 | 0.00 | 0.27 | 0.27 | 59 | 1047.8 |
| 20260905222530 | 91 | 87 | 1.0 | 3.0 | 0.00 | 0.27 | 0.27 | 57 | 1047.7 |
| 20260905222026 | 92 | 206 | 2.0 | 4.0 | 0.00 | 0.27 | 0.27 | 53 | 1047.8 |
| 20260905221522 | 93 | 349 | 4.0 | 4.0 | 0.00 | 0.27 | 0.27 | 52 | 1047.8 |
| 20260905221018 | 94 | 163 | 1.0 | 3.0 | 0.00 | 0.27 | 0.27 | 51 | 1047.6 |
| 20260905220514 | 94 | 174 | 1.0 | 1.0 | 0.00 | 0.27 | 0.27 | 50 | 1047.9 |
| 20260905220009 | 93 | 357 | 2.0 | 2.0 | 0.00 | 0.27 | 0.27 | 53 | 1047.8 |
| 20260905215504 | 93 | 164 | 2.0 | 3.0 | 0.00 | 0.27 | 0.27 | 51 | 1047.7 |
| 20260905215000 | 94 | 186 | 2.0 | 3.0 | 0.00 | 0.27 | 0.27 | 50 | 1047.6 |
| 20260905214455 | 94 | 221 | 2.0 | 3.0 | 0.00 | 0.27 | 0.27 | 54 | 1047.8 |
| 20260905213955 | 94 | 176 | 3.0 | 4.0 | 0.00 | 0.27 | 0.27 | 50 | 1047.4 |
| 20260905213452 | 93 | 238 | 4.0 | 4.0 | 0.00 | 0.27 | 0.27 | 50 | 1047.6 |
| 20260905212946 | 94 | 243 | 5.0 | 7.0 | 0.00 | 0.27 | 0.27 | 50 | 1047.5 |
| 20260905212441 | 94 | 241 | 5.0 | 6.0 | 0.00 | 0.27 | 0.27 | 47 | 1047.4 |
| 20260905211940 | 94 | 159 | 2.0 | 3.0 | 0.00 | 0.27 | 0.27 | 48 | 1047.5 |
| 20260905211436 | 94 | 185 | 2.0 | 3.0 | 0.00 | 0.27 | 0.27 | 50 | 1047.6 |
| 20260905210932 | 94 | 250 | 4.0 | 4.0 | 0.00 | 0.27 | 0.27 | 46 | 1047.8 |
| 20260905210432 | 94 | 155 | 2.0 | 3.0 | 0.00 | 0.27 | 0.27 | 47 | 1047.5 |
| 20260905205932 | 94 | 159 | 2.0 | 3.0 | 0.00 | 0.27 | 0.27 | 50 | 1047.5 |
| 20260905205427 | 94 | 179 | 2.0 | 4.0 | 0.00 | 0.27 | 0.27 | 48 | 1047.7 |
| 20260905204926 | 94 | 200 | 2.0 | 6.0 | 0.00 | 0.27 | 0.27 | 48 | 1047.5 |
| 20260905204422 | 93 | 215 | 3.0 | 6.0 | 0.00 | 0.27 | 0.27 | 48 | 1047.5 |
| 20260905203921 | 94 | 166 | 3.0 | 6.0 | 0.00 | 0.27 | 0.27 | 50 | 1047.6 |
| 20260905203416 | 94 | 223 | 3.0 | 6.0 | 0.00 | 0.27 | 0.27 | 49 | 1047.7 |
| 20260905202912 | 94 | 172 | 2.0 | 3.0 | 0.00 | 0.27 | 0.27 | 45 | 1047.8 |
| 20260905202407 | 94 | 139 | 2.0 | 4.0 | 0.00 | 0.27 | 0.27 | 50 | 1047.9 |
| 20260905201903 | 94 | 133 | 3.0 | 4.0 | 0.00 | 0.27 | 0.27 | 46 | 1048.1 |
| 20260905201358 | 94 | 138 | 1.0 | 2.0 | 0.00 | 0.27 | 0.27 | 45 | 1048.2 |
| 20260905200857 | 94 | 183 | 4.0 | 4.0 | 0.00 | 0.27 | 0.27 | 45 | 1048.1 |
| 20260905200353 | 94 | 137 | 2.0 | 4.0 | 0.00 | 0.27 | 0.27 | 46 | 1048.2 |
| 20260905195851 | 94 | 126 | 1.0 | 2.0 | 0.00 | 0.27 | 0.27 | 44 | 1048.1 |
| 20260905195347 | 94 | 179 | 2.0 | 4.0 | 0.00 | 0.27 | 0.27 | 44 | 1048.3 |
| 20260905194842 | 94 | 86 | 3.0 | 3.0 | 0.00 | 0.27 | 0.27 | 44 | 1048.3 |
| 20260905194342 | 94 | 146 | 1.0 | 2.0 | 0.00 | 0.27 | 0.27 | 47 | 1048.6 |
| 20260905193841 | 94 | 109 | 0.0 | 2.0 | 0.00 | 0.27 | 0.27 | 47 | 1048.6 |
| 20260905193336 | 93 | 197 | 3.0 | 6.0 | 0.00 | 0.27 | 0.27 | 44 | 1048.6 |
| 20260905192832 | 93 | 199 | 3.0 | 4.0 | 0.00 | 0.27 | 0.27 | 47 | 1048.9 |
| 20260905192328 | 93 | 153 | 2.0 | 3.0 | 0.00 | 0.27 | 0.27 | 45 | 1048.6 |
| 20260905191827 | 94 | 80 | 4.0 | 7.0 | 0.00 | 0.27 | 0.27 | 46 | 1048.8 |
| 20260905191326 | 93 | 127 | 1.0 | 1.0 | 0.00 | 0.27 | 0.27 | 47 | 1048.7 |
| 20260905190825 | 93 | 93 | 4.0 | 6.0 | 0.00 | 0.27 | 0.27 | 46 | 1048.7 |
| 20260905190324 | 93 | 105 | 1.0 | 4.0 | 0.00 | 0.27 | 0.27 | 44 | 1048.8 |
| 20260905185823 | 94 | 200 | 3.0 | 3.0 | 0.00 | 0.27 | 0.27 | 45 | 1049.1 |
| 20260905185319 | 94 | 153 | 3.0 | 4.0 | 0.00 | 0.27 | 0.27 | 47 | 1049.0 |
| 20260905184818 | 94 | 116 | 1.0 | 2.0 | 0.00 | 0.27 | 0.27 | 52 | 1049.2 |
| 20260905184317 | 93 | 115 | 0.0 | 2.0 | 0.00 | 0.27 | 0.27 | 46 | 1049.0 |
| 20260905183815 | 92 | 111 | 1.0 | 3.0 | 0.00 | 0.27 | 0.27 | 48 | 1049.2 |
| 20260905183311 | 93 | 152 | 4.0 | 6.0 | 0.00 | 0.27 | 0.27 | 48 | 1049.4 |
| 20260905182806 | 93 | 140 | 1.0 | 3.0 | 0.00 | 0.27 | 0.27 | 51 | 1049.4 |
| 20260905182306 | 92 | 140 | 2.0 | 3.0 | 0.00 | 0.27 | 0.27 | 48 | 1049.3 |
| 20260905181800 | 92 | 132 | 1.0 | 2.0 | 0.00 | 0.27 | 0.27 | 48 | 1049.4 |
| 20260905181255 | 92 | 71 | 2.0 | 4.0 | 0.00 | 0.27 | 0.27 | 50 | 1049.6 |
| 20260905180754 | 92 | 104 | 3.0 | 6.0 | 0.00 | 0.27 | 0.27 | 49 | 1049.6 |
| 20260905180249 | 91 | 117 | 0.0 | 3.0 | 0.00 | 0.27 | 0.27 | 48 | 1049.8 |
| 20260905175744 | 90 | 91 | 5.0 | 8.0 | 0.00 | 0.27 | 0.27 | 49 | 1049.7 |
| 20260905175239 | 91 | 111 | 3.0 | 4.0 | 0.00 | 0.27 | 0.27 | 48 | 1049.8 |
| 20260905174734 | 91 | 101 | 2.0 | 6.0 | 0.00 | 0.27 | 0.27 | 48 | 1049.9 |
| 20260905174229 | 91 | 94 | 1.0 | 3.0 | 0.00 | 0.27 | 0.27 | 48 | 1049.9 |
| 20260905173726 | 90 | 114 | 0.0 | 3.0 | 0.00 | 0.27 | 0.27 | 54 | 1050.0 |
| 20260905173222 | 90 | 89 | 6.0 | 8.0 | 0.00 | 0.27 | 0.27 | 50 | 1049.8 |
| 20260905172721 | 90 | 108 | 2.0 | 3.0 | 0.00 | 0.27 | 0.27 | 49 | 1050.0 |
| 20260905172221 | 90 | 84 | 5.0 | 6.0 | 0.00 | 0.27 | 0.27 | 47 | 1050.0 |
| 20260905171716 | 89 | 143 | 3.0 | 4.0 | 0.00 | 0.27 | 0.27 | 48 | 1050.2 |
| 20260905171212 | 89 | 81 | 3.0 | 6.0 | 0.00 | 0.27 | 0.27 | 49 | 1050.3 |
| 20260905170710 | 89 | 118 | 2.0 | 4.0 | 0.00 | 0.27 | 0.27 | 55 | 1050.3 |
| 20260905170209 | 89 | 84 | 4.0 | 6.0 | 0.00 | 0.27 | 0.27 | 51 | 1050.3 |
| 20260905165709 | 89 | 127 | 2.0 | 3.0 | 0.00 | 0.27 | 0.27 | 50 | 1050.3 |
| 20260905165204 | 89 | 95 | 3.0 | 4.0 | 0.00 | 0.27 | 0.27 | 55 | 1050.4 |
| 20260905164659 | 88 | 101 | 1.0 | 4.0 | 0.00 | 0.27 | 0.27 | 55 | 1050.2 |
| 20260905164159 | 87 | 83 | 4.0 | 7.0 | 0.00 | 0.27 | 0.27 | 52 | 1050.3 |
| 20260905163655 | 87 | 150 | 5.0 | 7.0 | 0.00 | 0.27 | 0.27 | 54 | 1050.4 |
| 20260905163151 | 88 | 63 | 3.0 | 4.0 | 0.00 | 0.27 | 0.27 | 51 | 1050.3 |
| 20260905162647 | 88 | 130 | 1.0 | 3.0 | 0.00 | 0.27 | 0.27 | 58 | 1050.0 |
| 20260905162146 | 87 | 87 | 2.0 | 3.0 | 0.00 | 0.27 | 0.27 | 58 | 1050.3 |
| 20260905161641 | 86 | 127 | 3.0 | 6.0 | 0.00 | 0.27 | 0.27 | 57 | 1050.5 |
| 20260905161139 | 86 | 82 | 4.0 | 4.0 | 0.00 | 0.27 | 0.27 | 60 | 1050.2 |
| 20260905160639 | 86 | 105 | 4.0 | 6.0 | 0.00 | 0.27 | 0.27 | 58 | 1050.4 |
| 20260905160138 | 86 | 125 | 3.0 | 3.0 | 0.00 | 0.27 | 0.27 | 59 | 1050.7 |
| 20260905155632 | 85 | 87 | 2.0 | 6.0 | 0.00 | 0.27 | 0.27 | 62 | 1050.4 |
| 20260905155131 | 84 | 63 | 4.0 | 6.0 | 0.00 | 0.27 | 0.27 | 62 | 1050.4 |
| 20260905154631 | 84 | 70 | 8.0 | 9.0 | 0.00 | 0.27 | 0.27 | 60 | 1050.6 |
| 20260905154127 | 84 | 70 | 4.0 | 8.0 | 0.00 | 0.27 | 0.27 | 63 | 1050.5 |
| 20260905153623 | 83 | 127 | 4.0 | 8.0 | 0.00 | 0.27 | 0.27 | 65 | 1050.8 |
| 20260905153118 | 84 | 96 | 4.0 | 6.0 | 0.00 | 0.27 | 0.27 | 64 | 1050.6 |
| 20260905152613 | 83 | 93 | 3.0 | 4.0 | 0.00 | 0.27 | 0.27 | 63 | 1050.5 |
| 20260905152108 | 82 | 126 | 2.0 | 4.0 | 0.00 | 0.27 | 0.27 | 66 | 1050.8 |
| 20260905151603 | 81 | 81 | 2.0 | 4.0 | 0.00 | 0.27 | 0.27 | 67 | 1050.9 |
| 20260905151058 | 81 | 95 | 3.0 | 6.0 | 0.00 | 0.27 | 0.27 | 66 | 1050.9 |
| 20260905150553 | 82 | 65 | 6.0 | 8.0 | 0.00 | 0.27 | 0.27 | 64 | 1051.0 |
| 20260905150052 | 83 | 92 | 4.0 | 4.0 | 0.00 | 0.27 | 0.27 | 68 | 1051.1 |
| 20260905145550 | 82 | 126 | 2.0 | 3.0 | 0.00 | 0.27 | 0.27 | 66 | 1051.1 |
| 20260905145049 | 82 | 90 | 2.0 | 2.0 | 0.00 | 0.27 | 0.27 | 67 | 1051.1 |
| 20260905144545 | 82 | 93 | 2.0 | 4.0 | 0.00 | 0.27 | 0.27 | 68 | 1051.0 |
| 20260905144044 | 82 | 96 | 3.0 | 3.0 | 0.00 | 0.27 | 0.27 | 69 | 1050.9 |
| 20260905143543 | 81 | 108 | 2.0 | 6.0 | 0.00 | 0.27 | 0.27 | 69 | 1050.9 |
| 20260905143039 | 81 | 71 | 3.0 | 3.0 | 0.00 | 0.27 | 0.27 | 69 | 1051.4 |
| 20260905142537 | 81 | 59 | 3.0 | 3.0 | 0.00 | 0.27 | 0.27 | 67 | 1051.0 |
| 20260905142033 | 80 | 108 | 0.0 | 2.0 | 0.00 | 0.27 | 0.27 | 70 | 1051.2 |
| 20260905141533 | 80 | 113 | 1.0 | 2.0 | 0.00 | 0.27 | 0.27 | 69 | 1051.1 |
| 20260905141030 | 79 | 112 | 1.0 | 2.0 | 0.00 | 0.27 | 0.27 | 71 | 1051.3 |
| 20260905140530 | 79 | 103 | 0.0 | 1.0 | 0.00 | 0.27 | 0.27 | 74 | 1051.1 |
| 20260905140028 | 78 | 115 | 0.0 | 0.0 | 0.00 | 0.27 | 0.27 | 75 | 1051.0 |
| 20260905135524 | 77 | 119 | 0.0 | 2.0 | 0.00 | 0.27 | 0.27 | 82 | 1051.4 |
| 20260905135020 | 76 | 114 | 0.0 | 2.0 | 0.00 | 0.27 | 0.27 | 79 | 1051.2 |
| 20260905134520 | 75 | 102 | 1.0 | 3.0 | 0.00 | 0.27 | 0.27 | 81 | 1051.3 |
| 20260905134018 | 74 | 92 | 1.0 | 2.0 | 0.00 | 0.27 | 0.27 | 83 | 1051.5 |
| 20260905133514 | 73 | 92 | 2.0 | 2.0 | 0.00 | 0.27 | 0.27 | 85 | 1051.7 |
| 20260905133014 | 73 | 86 | 1.0 | 2.0 | 0.00 | 0.27 | 0.27 | 87 | 1052.0 |
| 20260905132508 | 73 | 101 | 1.0 | 2.0 | 0.00 | 0.27 | 0.27 | 88 | 1051.8 |
| 20260905132008 | 73 | 116 | 1.0 | 4.0 | 0.00 | 0.27 | 0.27 | 88 | 1052.0 |
| 20260905131504 | 72 | 67 | 3.0 | 3.0 | 0.00 | 0.27 | 0.27 | 89 | 1051.8 |
| 20260905130959 | 72 | 81 | 1.0 | 1.0 | 0.00 | 0.27 | 0.27 | 90 | 1052.0 |
| 20260905130458 | 72 | 117 | 0.0 | 2.0 | 0.00 | 0.27 | 0.27 | 90 | 1052.0 |
| 20260905125958 | 71 | 97 | 2.0 | 3.0 | 0.00 | 0.27 | 0.27 | 90 | 1052.2 |
| 20260905125453 | 71 | 90 | 2.0 | 7.0 | 0.00 | 0.27 | 0.27 | 90 | 1052.2 |
| 20260905124948 | 71 | 94 | 0.0 | 2.0 | 0.00 | 0.27 | 0.27 | 90 | 1052.0 |
| 20260905124445 | 71 | 99 | 1.0 | 3.0 | 0.00 | 0.27 | 0.27 | 90 | 1052.2 |
| 20260905123940 | 71 | 313 | 2.0 | 6.0 | 0.00 | 0.27 | 0.27 | 89 | 1052.2 |
| 20260905123436 | 71 | 341 | 2.0 | 2.0 | 0.00 | 0.27 | 0.27 | 89 | 1052.0 |
| 20260905122936 | 71 | 303 | 3.0 | 9.0 | 0.00 | 0.27 | 0.27 | 89 | 1052.2 |
| 20260905122437 | 70 | 10 | 6.0 | 8.0 | 0.00 | 0.27 | 0.27 | 91 | 1052.0 |
| 20260905121932 | 71 | 110 | 0.0 | 0.0 | 0.00 | 0.27 | 0.27 | 93 | 1051.3 |
| 20260905121428 | 71 | 108 | 0.0 | 0.0 | 0.00 | 0.27 | 0.27 | 93 | 1051.0 |
| 20260905120926 | 71 | 121 | 0.0 | 0.0 | 0.00 | 0.27 | 0.27 | 92 | 1051.3 |
| 20260905120421 | 71 | 292 | 5.0 | 9.0 | 0.00 | 0.27 | 0.27 | 91 | 1051.5 |
| 20260905115916 | 71 | 113 | 0.0 | 0.0 | 0.00 | 0.27 | 0.27 | 92 | 1051.4 |
| 20260905115415 | 71 | 86 | 2.0 | 9.0 | 0.00 | 0.27 | 0.27 | 94 | 1051.5 |
| 20260905114911 | 71 | 108 | 0.0 | 0.0 | 0.07 | 0.27 | 0.27 | 95 | 1051.5 |
| 20260905114410 | 71 | 110 | 0.0 | 1.0 | 0.07 | 0.27 | 0.27 | 95 | 1051.5 |
| 20260905113909 | 71 | 115 | 0.0 | 0.0 | 0.00 | 0.26 | 0.26 | 95 | 1051.5 |
| 20260905113405 | 71 | 245 | 3.0 | 4.0 | 0.00 | 0.26 | 0.26 | 94 | 1051.4 |
| 20260905112900 | 70 | 80 | 2.0 | 7.0 | 0.00 | 0.26 | 0.26 | 95 | 1050.9 |
| 20260905112355 | 70 | 106 | 0.0 | 0.0 | 0.00 | 0.26 | 0.26 | 94 | 1050.7 |
| 20260905111850 | 70 | 112 | 0.0 | 7.0 | 0.00 | 0.26 | 0.26 | 93 | 1050.9 |